Dewpoint
65 66 66 66 65 65 65 65 65 65 64 64 63 63 63 64 64 64 64 64 63 63 63 63 62 63 63 63 63 64 64 65 65 65 65 65 65 65 65 65 65 64 64 64 64 63 63 62 62 62 62 61 61 60 60 60 59 59 58 57 57 56 55 53 52 50 45 46 45 42 43 44 43 43 42 41 44 47 42 39 41 46 46 45 45
64 65 66 66 65 65 65 65 65 65 64 64 64 63 63 64 64 64 64 64 64 63 63 63 63 63 63 63 63 64 64 64 65 65 65 65 65 65 65 65 65 64 64 64 63 63 63 63 62 62 62 61 61 60 60 60 59 58 58 57 57 55 54 52 49 48 43 39 40 42 43 44 42 42 41 41 42 46 41 40 42 46 46 45 44
62 62 65 66 66 65 65 65 65 65 65 64 64 64 64 64 64 64 64 65 65 64 64 64 64 63 63 63 64 64 64 64 65 65 65 65 65 64 64 65 64 64 64 64 63 63 63 62 62 62 61 61 60 60 60 59 59 58 58 57 56 55 52 50 48 45 41 39 42 41 42 42 41 41 41 41 43 44 41 39 39 43 45 45 44
62 62 61 62 65 66 66 66 66 66 65 65 65 65 65 64 64 64 65 65 65 65 64 64 64 64 64 63 63 64 64 65 65 65 65 65 64 64 64 64 64 64 64 63 63 63 62 62 62 61 61 60 60 60 59 59 59 58 58 56 55 54 51 49 48 46 41 38 41 39 41 41 40 40 40 42 42 43 41 38 37 39 41 44 43
61 62 62 62 62 64 66 66 66 66 66 66 65 65 65 65 65 65 65 65 65 65 65 65 64 64 64 64 64 64 64 64 65 65 65 65 65 64 64 64 64 64 64 63 64 63 62 62 61 60 60 60 60 59 59 58 58 57 57 55 53 52 50 49 47 46 42 39 39 41 41 40 42 40 40 39 40 40 39 38 36 36 39 41 44
61 61 61 62 62 62 64 65 66 66 66 66 66 66 66 65 65 65 65 65 65 65 65 65 64 64 64 64 64 64 64 64 64 65 65 65 65 65 64 64 64 63 63 63 63 62 62 61 61 60 59 59 59 59 58 57 56 55 55 54 52 50 48 48 47 46 43 40 38 40 40 39 38 38 37 39 38 39 37 38 38 38 38 38 40
61 62 62 62 62 63 63 63 65 66 67 67 67 67 66 66 66 65 66 65 65 65 65 65 65 65 64 64 64 64 64 64 64 65 65 65 65 65 64 64 63 63 63 63 62 62 61 60 60 59 59 59 59 58 57 56 55 54 53 53 50 49 47 47 46 46 44 41 39 38 39 40 38 36 36 39 38 37 36 37 36 38 40 38 39
60 60 60 62 62 62 64 65 66 67 67 67 67 67 67 67 66 66 66 66 65 65 65 65 65 65 65 65 65 64 64 64 64 64 65 65 65 65 64 64 63 63 62 62 62 61 60 60 59 59 59 59 58 58 57 56 54 53 51 51 48 47 47 47 46 45 45 43 40 40 39 38 38 40 40 36 36 34 37 37 35 35 35 40 40
59 60 60 61 62 62 63 63 65 66 66 67 67 67 67 67 67 66 66 66 66 66 66 66 65 65 65 65 65 65 64 64 64 64 65 65 65 65 64 64 63 63 62 61 61 61 60 59 59 58 58 59 57 56 56 56 53 52 49 48 47 46 46 46 46 45 45 44 42 41 39 38 38 36 34 33 33 32 35 36 34 37 38 37 37
59 60 60 60 60 60 61 63 65 66 66 67 67 67 67 67 67 67 66 66 66 66 66 66 65 65 65 65 65 65 64 64 61 58 59 64 65 65 64 64 63 63 62 61 60 60 60 59 58 59 57 56 54 52 50 51 52 52 49 46 47 45 45 45 45 45 44 44 43 40 39 38 38 36 34 34 34 38 36 34 30 36 37 37 39
58 59 60 60 60 60 61 62 63 64 65 66 67 67 67 67 67 67 67 66 66 66 66 65 65 65 65 65 64 64 64 64 57 53 53 55 63 65 64 64 63 63 62 61 60 59 59 58 58 58 57 56 55 50 49 48 48 47 48 48 49 45 44 44 44 44 43 43 43 40 39 38 37 36 34 34 39 36 35 34 33 37 35 34 34
55 59 60 59 60 62 63 63 63 64 65 65 66 66 67 67 67 67 67 66 66 66 65 65 65 65 65 65 65 64 64 59 54 52 51 52 56 64 64 64 63 62 62 61 60 59 58 58 57 57 57 56 56 53 50 48 46 45 43 43 43 44 44 43 43 42 42 41 41 40 38 37 36 36 36 36 36 38 39 37 37 36 36 35 36
50 55 59 61 62 62 63 64 65 65 65 64 64 65 66 67 67 67 67 67 66 66 65 65 65 65 65 65 64 64 64 58 53 51 50 50 51 58 64 64 63 62 62 61 60 60 58 57 56 56 56 56 55 53 52 50 47 45 44 44 44 42 39 39 41 43 41 40 39 40 38 37 36 36 37 37 38 36 39 38 37 37 37 36 37
50 50 51 55 58 60 61 61 61 62 63 64 64 63 64 65 66 67 67 66 66 66 66 65 65 65 65 65 64 64 64 58 52 51 50 49 50 54 63 63 63 62 61 61 60 59 59 57 56 55 54 55 54 52 51 50 47 45 45 45 45 46 42 39 39 40 42 41 39 38 39 38 37 37 40 39 38 37 38 37 37 36 36 35 38
50 51 51 52 54 56 59 60 60 60 61 61 61 62 63 63 64 66 66 66 66 66 66 65 65 65 65 65 64 64 64 57 51 50 49 48 49 51 62 63 62 62 61 61 60 59 58 57 56 55 54 53 52 50 49 47 46 45 44 44 44 44 43 42 42 42 42 41 39 38 39 40 38 39 40 40 38 37 38 37 37 38 40 38 37
49 50 51 53 54 55 56 57 59 60 60 61 62 63 64 64 64 64 65 66 66 66 66 66 65 65 65 65 64 64 64 54 51 49 49 48 48 56 61 62 62 61 61 61 60 59 58 56 55 54 53 52 50 45 46 46 45 45 44 43 42 42 42 48 43 43 43 42 40 38 39 41 41 40 42 40 40 42 43 41 40 38 36 35 35
47 49 50 50 52 53 55 56 56 56 57 57 58 59 60 61 61 61 61 62 65 66 66 66 66 65 65 64 64 64 64 57 50 49 48 47 49 58 61 62 62 61 61 60 60 59 57 56 55 53 52 51 46 41 42 45 45 44 43 42 42 41 41 42 41 43 44 42 41 40 40 41 40 40 40 40 41 41 39 38 37 37 36 34 36
49 48 47 47 47 49 52 55 56 56 56 56 56 57 58 59 60 61 61 61 61 63 63 65 66 65 65 65 64 64 64 60 50 49 47 46 52 59 61 62 62 61 61 60 60 59 57 55 55 53 51 50 42 40 40 44 45 44 43 41 41 41 41 41 41 39 38 38 39 39 40 40 40 40 39 39 39 40 37 36 37 37 36 35 31
49 48 48 48 48 50 52 54 55 56 56 56 56 57 57 58 59 60 61 61 61 62 61 62 64 65 65 65 61 63 64 61 50 48 46 46 51 59 61 61 61 61 60 60 59 58 57 54 53 52 51 48 40 40 39 44 45 43 43 41 41 40 41 42 40 38 37 38 37 39 38 41 42 41 41 40 39 42 38 37 37 35 34 35 34
51 50 50 49 49 50 50 52 54 55 56 56 57 57 58 59 59 59 60 60 61 61 62 62 61 62 63 64 64 63 64 64 54 47 46 46 48 59 61 61 61 61 60 59 58 57 56 54 51 46 45 42 39 39 39 41 44 43 43 42 41 41 42 42 41 40 39 40 38 39 39 39 40 40 40 39 41 42 38 37 35 34 33 36 36
52 51 51 50 50 49 50 50 52 54 56 56 56 56 57 58 60 60 60 60 61 62 62 62 62 62 63 63 63 64 64 64 57 46 46 46 46 53 61 61 61 60 60 58 58 57 55 53 52 45 42 40 39 38 38 39 42 43 42 42 42 44 42 42 43 45 40 40 40 39 38 38 38 37 37 38 40 39 38 37 35 32 31 34 34
52 51 51 50 50 50 50 52 54 56 56 56 57 57 58 58 59 60 60 60 60 61 60 61 62 62 61 61 61 63 62 59 62 46 45 45 46 48 59 61 60 61 60 58 58 57 55 53 51 45 40 40 39 38 38 38 39 44 42 39 39 38 44 43 42 41 40 40 40 39 38 38 38 38 37 37 38 40 37 36 35 33 32 32 32
51 51 50 50 51 51 53 55 55 56 56 56 57 58 58 58 58 59 59 59 60 60 60 60 60 60 61 61 61 61 62 61 55 51 45 45 45 46 50 56 53 59 59 58 57 57 55 53 50 44 40 39 39 38 38 38 39 41 39 37 38 37 40 41 41 40 40 39 39 39 38 38 38 38 39 38 37 37 37 36 36 36 35 35 34
53 52 51 52 54 55 56 56 56 56 55 55 56 57 57 57 57 58 58 58 59 59 60 60 59 59 60 59 60 61 61 61 52 50 48 43 44 45 47 50 51 58 59 59 58 57 54 52 49 41 40 39 39 38 38 38 39 38 37 37 37 38 41 40 40 39 39 38 38 38 38 38 38 38 38 39 39 39 37 37 37 37 36 36 36
54 55 56 57 57 57 57 56 55 55 56 55 56 56 57 57 57 58 57 57 58 58 59 59 59 59 59 59 59 60 60 60 59 51 46 44 44 44 45 47 47 49 58 59 57 56 50 46 43 40 40 39 39 38 38 38 37 37 37 36 39 40 41 41 41 39 37 37 40 38 37 37 38 37 38 38 39 39 38 39 38 36 36 36 36
54 54 55 56 56 54 54 54 55 55 55 56 56 57 57 57 57 57 58 58 58 58 58 58 58 58 58 59 59 60 59 57 57 54 47 46 45 44 45 46 48 47 53 57 51 49 46 43 41 40 40 40 42 42 41 40 37 37 37 38 40 38 41 41 38 38 36 37 40 38 40 36 37 37 37 38 37 38 38 38 39 38 38 37 36
52 53 53 54 54 54 54 53 53 54 55 55 56 57 57 57 57 56 57 58 58 58 58 57 57 57 58 58 59 59 59 58 57 54 51 50 50 49 47 49 48 46 51 58 50 50 46 45 43 41 42 40 41 41 41 39 38 39 40 40 39 39 41 43 42 40 42 42 40 40 36 36 38 37 36 36 36 36 37 37 38 38 40 38 37
53 54 54 53 54 53 54 49 51 54 55 57 57 57 57 57 57 57 56 57 58 58 58 57 57 57 58 58 58 58 58 58 58 56 53 51 51 52 51 52 53 53 54 57 54 52 47 43 42 45 45 44 44 44 44 42 40 40 40 39 39 40 44 42 42 40 38 39 37 37 37 38 37 37 37 37 36 36 38 38 38 38 40 40 37
55 55 55 54 54 53 55 55 54 54 55 56 57 58 58 58 57 58 58 58 58 58 58 59 58 59 59 59 58 58 58 57 58 53 55 49 50 53 52 53 54 55 53 50 49 47 46 45 45 45 45 43 43 43 43 42 41 41 41 41 40 41 42 43 40 41 43 43 40 38 37 37 37 37 37 37 37 37 38 38 38 38 39 39 38
54 55 56 56 56 55 54 54 55 55 56 56 57 57 49 50 53 58 58 52 50 49 50 58 59 59 59 59 59 59 58 59 53 50 49 47 46 47 48 49 49 52 48 43 46 48 47 46 45 44 44 43 43 42 42 42 41 41 41 39 41 42 41 41 40 43 42 40 40 38 38 37 37 36 36 36 36 37 38 37 38 39 39 40 39
54 54 53 54 53 54 55 55 55 56 56 56 57 56 56 55 46 45 48 51 48 46 46 47 48 51 57 59 57 51 51 51 50 49 48 46 45 46 46 47 47 46 42 45 49 46 45 45 45 45 43 44 43 42 42 41 40 41 41 41 42 42 39 40 42 39 38 39 39 38 37 36 36 35 35 34 35 35 36 37 38 39 38 39 39
53 52 51 51 50 51 54 55 55 55 56 56 56 55 56 56 56 48 45 46 46 46 45 45 46 46 47 52 56 58 50 48 48 48 47 45 44 45 45 45 45 42 42 45 47 45 47 47 45 45 44 43 42 42 42 42 40 40 41 40 40 41 41 38 37 38 40 39 37 36 35 35 35 33 34 33 32 34 35 36 36 37 37 38 38
50 50 49 49 49 50 52 54 53 54 54 55 55 55 55 55 55 55 53 45 44 45 44 44 44 45 45 45 48 51 51 49 47 47 46 44 44 44 44 44 43 42 42 47 47 45 48 49 47 46 44 43 43 42 42 42 41 40 40 40 40 42 42 39 37 38 37 39 37 36 35 34 33 32 32 31 31 32 34 34 35 35 35 34 34
51 49 48 48 49 50 52 53 53 53 54 54 54 54 55 55 56 56 55 55 53 47 43 42 43 44 44 44 46 46 46 46 46 45 44 43 43 43 43 44 43 42 44 49 50 47 49 48 47 46 44 44 44 42 42 42 41 41 42 43 43 43 43 42 41 38 34 36 37 36 35 35 33 32 32 31 30 31 33 33 34 33 33 32 32
51 46 41 43 48 50 51 51 51 52 52 51 52 52 53 53 53 53 54 53 54 54 56 55 46 43 47 45 44 45 46 46 45 44 43 43 42 43 43 45 42 42 46 51 51 50 48 47 47 45 45 44 44 43 42 42 41 42 43 43 44 43 42 39 40 41 37 37 36 36 36 36 36 33 32 31 30 30 31 32 33 33 32 33 32
50 49 48 47 48 48 50 50 50 50 49 49 50 49 49 50 51 52 52 52 53 54 54 55 52 45 43 45 46 45 45 44 45 44 43 42 42 42 46 44 45 45 46 50 50 50 48 48 47 46 45 44 44 43 43 43 42 42 43 43 42 43 41 41 38 39 40 38 35 35 36 37 37 34 33 33 32 30 30 31 32 33 33 32 32
48 48 48 47 47 48 48 48 49 47 43 45 47 50 50 49 50 52 52 54 52 53 54 53 51 50 46 46 46 45 44 43 42 42 43 42 41 46 50 47 48 47 46 49 49 49 49 48 47 46 45 45 45 45 45 45 44 43 42 43 42 42 42 43 41 37 39 37 37 36 35 35 37 35 33 32 32 30 30 31 32 32 32 31 31
45 48 47 45 45 47 47 47 46 41 45 46 48 49 48 48 49 50 50 52 51 51 51 50 47 51 51 51 50 48 45 41 41 41 41 40 41 48 50 49 49 48 47 48 49 49 49 48 47 46 45 45 45 45 45 44 44 44 42 42 42 42 39 39 37 40 38 37 37 36 35 35 36 35 33 33 32 31 31 31 31 31 30 30 30
43 41 40 38 40 46 46 45 45 45 45 45 46 46 45 46 47 48 49 50 48 48 47 49 49 49 50 45 44 44 43 43 43 42 41 42 45 49 51 50 50 49 48 49 48 48 48 47 46 45 44 45 44 45 45 44 44 44 43 43 42 41 40 39 38 39 36 35 35 36 36 35 35 35 34 33 32 31 31 31 31 31 30 29 30
40 44 43 40 44 44 44 44 44 45 44 45 45 46 46 46 47 47 47 48 48 47 47 48 48 49 45 43 44 44 46 44 44 43 42 42 44 47 50 49 50 49 48 49 48 48 48 47 46 46 44 44 44 44 44 44 44 44 44 42 40 39 39 39 37 37 36 34 33 35 36 35 35 35 34 34 34 33 32 31 31 31 30 30 30
41 44 41 42 42 45 45 45 45 45 45 44 45 45 45 44 45 44 46 46 45 46 46 47 48 46 43 40 40 42 47 46 45 43 43 44 45 47 49 50 49 49 48 48 48 48 48 47 45 45 44 44 43 43 43 44 44 44 43 40 40 37 38 38 37 36 35 34 33 34 35 35 35 35 34 34 35 34 32 32 31 31 31 30 30
40 42 43 44 45 46 45 44 44 43 44 43 44 44 43 44 45 45 43 43 42 43 45 46 46 44 40 39 39 41 45 44 44 44 44 45 46 48 49 50 50 50 49 49 49 48 48 47 47 45 44 44 44 44 44 44 44 44 42 41 39 38 37 37 37 36 36 35 34 34 34 35 35 35 35 36 34 33 32 32 31 31 31 31 31
39 40 42 42 44 46 44 44 45 45 44 44 44 40 41 43 44 43 43 42 42 42 44 44 43 41 39 37 38 40 44 44 40 42 43 44 45 46 46 47 48 49 49 49 48 49 49 48 47 46 45 44 44 43 43 43 43 43 42 41 40 39 38 37 37 36 36 35 35 35 35 35 35 35 35 34 33 33 32 32 32 31 31 31 31
38 39 39 40 42 44 44 44 44 44 44 41 41 41 42 43 43 43 43 43 42 42 42 42 42 41 40 39 39 40 43 42 42 43 43 43 44 45 46 46 46 47 48 48 48 47 47 47 46 47 46 46 45 45 44 45 45 43 42 41 39 38 39 37 37 37 36 35 35 35 35 34 34 34 34 33 33 33 32 32 32 32 31 31 31
37 37 38 39 40 41 44 45 44 44 43 42 44 44 42 43 43 42 41 42 40 41 41 41 40 40 39 41 42 42 42 42 40 40 41 42 42 43 44 45 46 46 46 46 46 47 48 47 47 46 46 47 46 46 46 45 46 45 44 43 40 38 39 39 39 39 37 36 36 35 35 35 34 34 34 33 33 33 32 32 32 31 32 32 31
35 36 36 37 37 39 41 44 43 45 45 44 44 44 43 43 43 42 41 41 41 41 42 41 41 41 40 42 42 40 42 42 42 41 41 41 42 43 44 44 45 45 45 45 46 47 46 46 45 44 45 46 47 46 46 46 46 46 46 45 44 43 43 43 43 40 39 38 37 36 36 35 35 34 33 33 33 33 33 33 32 32 32 32 32
34 35 35 36 36 37 39 42 45 44 45 44 44 43 43 43 43 42 41 41 41 41 42 43 43 42 42 42 42 42 42 42 41 41 41 42 43 44 44 44 44 45 45 46 46 46 46 45 45 44 44 46 46 46 46 46 46 46 46 46 45 45 44 44 43 42 41 41 39 36 36 35 35 34 33 33 33 33 33 33 32 32 32 32 32
33 34 34 34 35 36 38 41 42 40 44 44 44 43 42 43 43 42 43 42 43 42 43 43 43 43 42 42 42 42 42 42 42 42 42 43 43 44 45 45 44 45 45 45 45 45 45 45 46 45 45 45 45 46 47 47 47 46 46 46 46 45 44 41 43 43 42 41 40 38 36 35 35 34 34 33 33 33 33 33 32 32 32 32 32
31 32 33 33 34 35 36 38 39 42 42 43 43 44 43 44 43 43 43 43 43 43 43 43 43 43 42 42 42 42 42 41 43 43 42 42 43 44 45 44 43 45 45 45 45 45 46 46 45 46 46 46 47 47 47 46 47 46 46 46 44 40 39 39 41 43 39 40 38 38 37 36 35 34 34 33 33 33 33 33 32 32 32 32 32
30 31 32 32 33 33 33 36 38 40 40 41 41 41 42 43 43 43 43 43 43 43 43 43 42 43 43 43 42 43 43 43 43 43 43 43 43 44 44 44 45 45 45 45 45 45 45 46 46 46 46 47 47 47 47 47 47 47 46 46 40 39 39 39 39 38 40 39 39 38 37 36 35 34 34 33 33 33 33 32 32 32 31 31 31
28 29 30 31 32 33 32 32 34 36 37 37 39 39 38 40 42 43 42 43 42 42 42 43 43 42 42 42 41 42 42 43 43 44 44 43 43 44 44 44 43 44 44 44 45 45 45 45 45 45 45 44 47 47 47 47 47 47 43 40 39 39 38 38 40 37 37 38 40 39 37 35 34 33 33 32 32 32 32 32 32 31 31 31 31